Погода в Буртниеки

Латвия     57°41′36″N   25°16′30″E
темп.,
°C
ветер,
м/с
пор.,
м/с
влажн.,
%
обл.,
%
осадки,
мм/ч
давл.,
гПа
погр.,
м
7 марта, вс
вс723:00+2зюз81677100 0.2 10011156
02:00−2сз61589100 4.9 9991227
05:00−2зюз4976100 0.3 998415
08:00−2зсз91771100 1.6 9961922
11:00−1зсз9154667 0.3 9982297
14:00−1зсз9145783 0.3 9981814
17:00−3зсз81482100 0.1 9981433
20:00−4зсз51086100 0.3 999807
8 марта, пн
пн823:00−4ссз5984100 0.2 1002889
02:00−6ссз498280 0.3 1006558
05:00−6ссз598866 0.1 1008995
08:00−7с487978 0.1 1011868
11:00−6с4769100 0.0 1014787
14:00−4с3663100 0.0 1015932
17:00−4с356244 0.0 1016944
20:00−7с257828 0.0 1018144
9 марта, вт
вт923:00−8с11840 0.0 101921
02:00−8зюз12810 0.0 102021
05:00−8зюз237481 0.0 102086
08:00−6юз367591 0.0 1019239
11:00−3юз5872100 0.0 1018721
14:00−1зюз61067100 0.0 10181232
17:00−1зюз41069100 0.1 10161113
20:00−2зюз51173100 0.1 1016687
10 марта, ср
ср1023:00−2зюз51095100 0.5 1016673
02:00−3з1597100 2.1 1017319
05:00−8св489198 1.6 1018304
08:00−9св588997 1.7 1019408
11:00−8всв478098 0.1 1020486
14:00−6всв477798 0.1 1021591
17:00−7всв478299 0.0 1021599
20:00−9всв379094 0.1 1021392
11 марта, чт
чт1123:00−9всв389383 0.0 1021351
02:00−10в259590 0.1 1021224
05:00−10вюв369689 0.0 1019243
08:00−10юв369394 0.1 1018249
11:00−4ююв487977 0.0 1015578
14:00−1ююв6106787 0.0 1012916
17:00−1ююв61269100 0.0 1008940
20:00−1ююв71667100 0.0 10031021